Showing default

CONTECSAT-1, 59117

Orbit data source: Space-Track

CONTECSAT-1, 59117 is a payload satellite owned by CONTEC (KR) in SSO that was launched on Mon, 04 Mar 2024 UTC via an FALCON 9 launch vehicle from the Air Force Western Test Range (AFWTR). Payloads include a variety of satellites, spacecraft, and rockets equipped with specific instruments for various scientific and technological missions. These include communications satellites like Starlink; space stations such as the ISS; scientific satellites like the Hubble; Earth observation satellites from companies like Planet Labs, Umbra, and HawkEye 360; GPS; miniature CubeSats for education and research; and military/defense satellites.

Loading next visibility...
CONTECSAT-1 details
Identifier
59117, 2024-043V
Orbit
SSO
Last TLE update8 hours ago
Origin
Flag of KRCONTEC (KR / SKOR)
ManufacturerCONTEC
MissionOperational Commercial Imaging
Bus & MotorCUBESAT 16U, Unknown motor
Mass~20 kg wet, ~20 kg dry
Launch date (UTC)
2024-03-04 (10 months ago)
Launch vehicle
FALCON 9
Launch site
Air Force Western Test Range (AFWTR)
Object type
Payload
Rocket body
Debris
Shape & HBRBox, 0.3 m
Radar Cross Section0.080 m², Medium (>0.1 m² and < 1m²)

Expand to show TLE details & history

TLE from 8 hours ago
0 CONTECSAT-1
1 59117U 24043V   25015.07175518  .00010877  00000-0  45362-3 0  9999
2 59117  97.5007 143.6592 0012425 269.8366  90.1448 15.23796074 48009
Epoch: 2025-01-15T01:43Z
Definitive object data (Epoch: 2025-01-15T01:43:19.647Z)
Latitude0.00006°
Longitude3.05797°
Altitude497.528 km
Speed7.616 km/s
True Right ascension09h 34m 38s
True Declination0° 00' 00"
Sunlit
Object was in full shadow at TLE epoch
Visualization TLE readout
Latitude8.10416°
Longitude2.31942°
Altitude498.194 km
Speed7.615 km/s
Apparent Right ascension07h 47m 04s
Apparent Declination-54° 13' 31"
Sunlit
Object is in full shadow
Visualization observer readout
Local Sidereal Time10:18:10
Azimuth201.294° SSW
Elevation-9.566°
Doppler factor1
Orbital elements
Apogee altitude499.903 km
Perigee altitude482.832 km
Semi-major axis6,869.505 km
Eccentricity0.0012425
Inclination97.5007°
RAAN143.6592°
Arg. of periapsis269.8366°
True anomaly90.28718°
Mean anomaly90.1448°
Eccentric anomaly90.21599°
Mean motion3.81202 °/min
BSTAR0.00045362
Orbital period94.44 mins
Loading maneuver chart data...
Loading historical data...
Loading historical data...
Loading historical data...
Loading historical data...
Loading historical data...
Loading historical data...
Loading historical data...

CONTECSAT-1 Visibility forecast

Observer location: undefined°, undefined

Span
Click to sort rows by Start time (UTC) header in descending order
Start Az.
Max El. time (UTC)
Max El. Az.
Max El.
End time (UTC)
End Az.
7 mins2025-01-15 21:11:15.999Z15.971° NNE2025-01-15 21:15:15.999Z154.421° SSE41.925°2025-01-15 21:18:15.999Z186.846° SSW
4 mins2025-01-16 07:49:15.999Z114.388° SE2025-01-16 07:51:15.999Z65.875° ENE23.963°2025-01-16 07:53:15.999Z22.626° NE
|